Wind_Speed
17 22 21 19 18 15 13 12 11 10 10 12 14 15 17 19 20 21 21 21 20 20 20 20 19 19 19 19 19 18 17 16 16 16 16 15 14 13 13 12 11 10 9 8 7 6 5 4 2 2 2 1 0 1 2 3 4 5 5 5 5 5 5
14 20 21 20 18 15 14 14 13 10 10 13 16 16 17 18 19 20 20 21 22 22 22 21 20 20 20 20 20 19 18 18 18 17 17 16 15 14 14 13 12 11 9 9 7 7 6 4 3 2 2 2 2 3 4 4 4 4 4 5 5 5 5
14 20 23 20 16 14 13 14 13 11 10 14 17 16 16 18 19 20 21 21 22 23 23 23 22 21 22 21 21 20 20 19 19 19 18 18 17 16 16 15 14 12 10 10 10 9 7 6 6 6 6 6 6 6 7 7 7 6 6 5 5 5 5
16 22 22 18 15 15 16 15 14 14 13 14 17 17 17 18 19 20 21 21 21 22 22 22 21 22 22 22 21 21 21 20 21 20 20 19 18 17 17 16 15 14 13 12 12 11 10 9 9 10 10 10 9 9 9 10 10 9 9 8 8 8 7
17 22 23 21 20 19 17 15 16 17 16 16 18 17 16 17 19 20 20 20 20 21 22 22 22 22 22 22 22 22 22 22 22 21 20 19 18 17 17 17 16 15 14 13 13 12 12 12 11 11 11 11 11 10 10 10 10 11 11 10 10 10 10
17 21 25 24 21 17 15 15 17 19 18 18 18 16 14 15 17 18 19 20 20 20 21 21 21 21 21 22 22 22 23 23 22 21 20 19 19 19 19 18 17 15 14 13 12 12 11 11 10 10 10 10 11 11 11 11 11 11 11 11 11 11 11
18 20 24 23 19 16 15 16 19 21 21 20 18 17 15 14 15 16 18 19 21 20 20 19 19 19 19 20 22 23 23 23 22 21 21 20 20 20 19 18 16 15 14 13 12 11 11 10 10 9 10 10 11 12 12 11 11 12 12 11 11 11 12
17 19 24 23 19 16 16 18 21 24 23 22 20 17 15 14 14 14 16 18 21 21 20 20 19 19 19 20 21 23 24 24 24 23 22 21 20 19 18 17 16 14 13 12 11 11 10 10 10 10 10 11 11 12 12 12 12 12 12 12 11 11 11
17 19 22 22 20 17 16 18 23 25 24 22 18 16 16 16 15 14 15 18 20 21 21 21 20 21 21 21 21 23 24 25 25 24 22 21 20 18 17 16 15 13 12 12 11 11 11 10 10 10 11 11 11 11 11 12 12 12 12 11 11 10 10
20 20 21 21 20 17 15 18 23 25 23 21 18 16 18 18 17 16 16 17 19 21 22 22 21 22 23 24 23 24 24 24 23 22 21 20 19 18 17 15 13 12 11 11 11 11 11 10 10 11 11 11 11 11 11 11 11 11 11 10 9 9 9
21 21 22 23 21 19 18 20 23 22 21 20 18 18 19 19 19 19 17 16 18 21 22 22 22 22 23 24 24 23 23 22 22 21 20 19 18 17 16 14 13 12 11 11 11 12 11 10 10 10 10 11 10 10 10 10 10 10 10 9 8 8 8
20 20 24 26 24 22 22 22 22 20 18 19 20 20 21 20 20 20 18 17 18 19 21 21 22 22 23 23 22 22 22 21 21 21 20 19 19 17 16 14 13 12 12 12 12 12 11 10 10 9 9 9 9 9 9 9 10 9 8 7 6 6 5
19 20 24 28 27 25 24 23 22 21 18 18 20 22 22 22 21 20 18 17 19 20 20 20 21 21 22 22 21 21 20 20 21 21 20 20 19 18 16 15 14 13 13 13 12 11 11 10 9 9 9 9 9 9 9 10 9 7 6 5 3 3 3
19 21 23 27 27 24 22 23 25 24 21 20 21 23 24 24 22 20 18 18 19 21 21 21 21 21 21 21 21 20 20 21 21 21 20 20 19 17 16 15 14 14 13 13 12 11 11 9 8 9 9 10 10 10 10 9 8 6 4 3 3 4 5
19 22 23 24 23 21 22 24 27 27 25 22 22 23 25 24 22 20 19 18 20 21 22 22 22 21 20 20 20 20 21 21 21 20 19 18 18 17 16 15 15 14 14 13 12 11 11 9 9 10 10 10 11 10 10 8 7 5 4 4 3 4 4
18 21 23 22 19 19 22 26 27 27 26 24 22 23 25 23 20 18 17 17 19 21 22 23 22 22 21 20 20 21 21 21 20 19 18 18 18 18 16 15 15 15 14 13 13 11 11 10 10 11 11 11 11 11 10 8 7 6 5 4 3 2 3
20 21 23 22 20 22 25 26 27 27 27 25 22 23 23 21 19 18 16 17 18 18 19 19 20 20 20 20 21 21 21 21 20 18 18 17 17 17 16 16 15 15 14 14 13 12 12 12 12 12 11 11 11 11 10 9 8 7 6 5 4 3 3
21 21 22 23 23 24 26 26 25 26 26 24 23 23 22 22 21 19 18 17 17 17 17 16 16 17 18 18 19 19 18 19 19 19 19 18 18 17 17 17 16 15 15 15 14 14 13 13 13 13 12 11 11 12 11 11 10 8 8 7 6 5 4
23 23 23 23 23 24 25 24 23 24 24 24 23 24 24 24 23 21 20 19 18 17 16 15 15 15 15 15 14 14 14 15 15 17 18 18 18 19 19 19 18 17 17 17 17 17 16 14 14 13 13 12 12 13 13 12 11 10 9 9 7 6 6
23 25 26 26 25 24 25 25 25 26 27 27 26 26 28 28 26 25 24 22 20 18 17 16 16 15 14 13 12 12 12 11 12 13 14 16 18 19 19 18 18 18 19 20 20 19 17 15 15 14 14 13 14 15 14 14 13 12 11 10 8 7 7
22 24 26 27 28 28 29 30 30 31 31 30 29 29 31 31 29 28 27 25 22 20 19 18 17 16 15 14 13 13 12 11 11 12 13 15 17 17 17 17 18 19 20 21 21 20 18 18 17 16 16 15 16 16 15 15 15 14 13 12 11 10 10
22 22 24 25 26 27 28 31 33 33 31 29 27 28 30 32 31 29 27 26 24 22 21 20 19 17 17 15 14 14 12 11 11 11 12 13 15 16 17 17 17 18 20 22 22 20 19 18 18 17 16 17 18 17 16 17 17 16 15 15 15 14 12
23 20 20 21 21 21 22 25 28 28 27 25 24 25 27 30 30 29 28 27 26 25 23 22 20 18 17 17 16 15 14 13 13 12 12 12 14 16 17 17 18 19 21 21 21 20 18 18 18 18 18 19 19 18 18 18 18 18 17 17 17 16 15
24 21 20 19 19 19 19 20 21 21 21 22 23 24 26 28 29 29 27 26 26 25 24 23 21 19 18 18 18 18 17 15 14 14 13 12 13 15 18 19 19 20 21 21 20 20 19 19 20 19 19 19 19 19 20 20 20 20 19 19 19 18 17
24 22 20 19 19 19 19 19 20 20 19 20 21 23 24 26 27 27 26 25 23 23 22 21 20 19 19 19 20 20 20 18 16 15 15 14 14 14 17 19 20 20 21 21 21 21 21 21 20 20 19 19 19 19 20 21 21 21 20 20 20 19 18
25 23 21 20 20 19 19 20 21 22 22 21 22 22 23 24 25 25 25 25 24 23 22 21 21 21 20 21 21 22 22 21 19 18 17 17 16 15 15 18 20 20 21 21 21 21 21 21 20 19 19 19 20 20 21 21 21 21 21 21 21 21 20
28 27 24 22 21 21 21 22 22 23 24 24 23 23 23 23 24 25 25 25 24 24 24 24 24 24 24 24 24 24 24 23 22 21 20 19 18 17 15 15 17 18 19 20 20 20 20 20 19 19 19 19 20 21 21 22 22 22 22 22 22 21 21
32 31 29 26 24 23 23 23 24 25 25 25 25 24 24 25 26 27 28 28 27 27 26 26 26 26 26 27 26 26 26 26 25 24 23 22 21 19 17 16 16 16 16 17 18 18 19 19 19 19 18 18 19 20 21 22 23 23 23 22 21 21 22
36 34 33 30 28 27 26 25 25 25 26 27 27 27 27 28 28 29 29 29 28 28 28 28 28 28 29 29 29 29 29 29 29 28 27 26 24 23 21 20 19 19 18 19 19 19 19 20 20 20 20 19 20 21 22 23 24 24 23 23 22 23 23
39 37 35 33 31 29 28 27 26 25 26 27 28 29 29 29 28 28 29 29 28 28 28 29 29 30 30 31 32 33 33 33 32 31 30 29 28 27 25 23 23 22 22 22 22 22 22 22 22 21 21 21 22 22 23 24 25 25 24 23 24 25 26
42 40 36 34 33 31 30 29 27 26 26 26 27 28 28 28 28 28 28 28 28 28 29 29 29 30 30 31 31 32 33 34 34 33 33 32 31 30 28 27 26 25 25 24 24 24 24 24 24 23 23 23 23 24 25 26 26 26 25 25 26 28 29
45 42 39 36 34 34 33 31 29 28 27 27 27 27 27 27 27 27 27 27 28 28 28 28 28 28 28 28 28 29 31 33 34 34 35 35 34 33 32 31 29 29 28 28 27 26 26 26 26 25 25 25 26 26 27 28 29 28 28 28 30 31 32
48 45 42 39 37 37 36 35 33 31 30 29 28 27 26 26 25 25 25 26 26 26 26 26 26 26 25 25 25 26 27 29 31 33 34 35 35 35 34 34 33 32 32 31 31 30 30 29 28 28 27 27 28 29 30 32 32 31 31 32 33 34 35
51 48 45 42 40 40 39 38 36 34 33 32 30 28 27 26 25 25 24 24 24 25 25 25 25 25 24 24 24 24 25 26 27 29 31 33 33 33 32 33 33 33 33 33 33 33 33 33 32 31 30 30 30 32 33 34 34 34 34 35 35 36 37
51 48 45 43 42 42 42 41 39 37 35 34 33 31 29 27 26 25 24 24 25 25 26 26 25 25 25 25 24 24 24 25 26 27 29 30 29 29 30 31 31 31 32 33 33 33 34 35 35 34 34 34 34 35 35 36 36 37 38 38 38 39 40
49 47 44 43 43 44 44 44 43 41 39 38 36 34 32 30 28 27 26 27 27 27 27 27 27 27 26 26 26 26 25 25 26 27 28 28 28 28 29 30 30 31 31 32 32 33 34 35 35 36 37 37 38 38 38 39 39 40 40 40 41 41 42
48 46 43 41 42 43 45 45 45 44 42 41 39 37 35 33 32 30 29 30 30 30 30 30 29 29 28 28 28 28 28 28 28 28 28 28 29 30 31 31 31 31 32 32 33 33 34 35 36 37 38 39 39 40 41 41 41 42 42 42 43 43 44
51 49 46 43 41 42 43 44 45 46 45 44 43 41 39 37 36 34 33 32 32 32 32 32 32 31 31 30 31 31 30 30 30 30 30 30 31 31 32 32 33 33 33 34 34 35 35 36 36 37 38 39 39 40 41 42 42 43 43 44 45 45 46
Wind_Direction
191 197 201 198 202 205 205 216 221 216 207 194 191 195 197 196 195 196 197 199 202 202 200 197 198 201 201 199 197 195 194 190 188 188 185 183 178 172 172 174 177 179 187 193 189 188 194 192 172 149 139 131 137 288 310 336 358 7 12 16 13 8 4
186 194 196 192 194 198 203 215 219 217 211 202 195 194 198 200 201 202 201 202 204 203 200 196 194 197 201 200 197 194 194 191 188 188 186 184 179 173 173 177 181 180 180 186 186 187 190 188 184 185 204 227 241 254 269 287 305 324 337 345 350 353 354
190 193 193 189 191 204 215 219 219 220 220 211 200 193 196 202 204 205 205 205 206 205 203 201 198 198 200 199 195 194 194 192 189 186 186 185 181 177 176 179 184 184 181 185 193 200 203 206 216 229 240 248 255 260 263 271 279 285 292 300 307 316 324
191 189 192 190 198 216 225 226 223 220 222 216 204 196 197 200 204 206 206 207 207 206 206 207 207 206 204 199 194 193 194 193 189 187 186 185 181 178 178 181 185 189 191 194 201 209 217 223 229 239 248 255 260 263 264 266 270 275 277 279 284 290 296
197 187 196 202 207 215 221 226 226 219 218 219 211 202 198 199 201 203 205 207 208 206 205 208 212 213 209 202 196 193 194 193 189 187 185 183 180 177 177 182 185 190 196 200 205 211 219 226 232 238 246 253 258 261 263 264 267 270 273 275 277 280 285
210 191 197 204 205 212 221 228 229 222 217 221 217 206 199 200 200 201 203 205 206 206 207 209 213 215 213 206 198 194 194 192 189 188 185 181 179 178 179 181 185 190 196 200 206 212 217 224 230 237 243 250 255 258 260 262 265 267 270 273 275 277 280
218 194 192 197 199 213 228 232 229 222 216 219 216 202 195 198 198 201 204 205 206 206 206 208 211 214 214 209 202 195 192 189 186 186 185 183 181 181 181 181 185 191 195 200 206 213 220 225 230 237 243 248 253 257 259 261 264 266 267 269 271 274 278
217 193 191 197 202 215 232 232 224 218 215 217 212 198 193 195 193 196 203 207 209 207 204 204 205 207 208 206 201 193 188 186 186 187 187 186 185 184 183 185 189 193 195 200 205 212 221 228 232 236 241 244 249 254 259 262 263 264 266 266 268 271 276
211 197 195 200 204 211 227 227 217 214 214 214 209 198 195 195 189 190 199 206 208 206 203 200 201 201 198 193 192 188 186 186 187 188 189 188 187 187 188 191 193 193 196 201 206 211 218 227 234 238 241 243 244 246 252 259 263 267 268 267 267 269 271
205 199 197 196 195 203 216 212 207 210 210 208 205 199 198 195 189 188 194 202 205 204 201 197 197 199 194 187 186 185 185 187 188 190 191 190 189 190 193 194 192 193 199 202 205 210 218 225 230 234 237 241 245 247 250 257 263 267 268 266 263 261 263
202 198 193 188 187 200 209 203 200 204 205 203 202 201 199 195 189 186 187 197 203 203 200 196 193 195 194 191 189 186 185 187 188 189 190 190 191 193 194 192 190 192 198 200 204 210 216 222 226 230 234 238 244 250 253 256 257 258 259 259 257 254 254
203 199 190 185 188 199 204 200 196 197 198 200 199 200 199 192 184 182 184 192 199 200 199 196 192 192 195 195 193 190 189 188 188 188 188 187 189 190 189 189 190 192 194 197 203 209 214 220 225 231 239 243 244 245 247 249 251 250 250 251 252 251 247
205 200 189 185 188 194 198 202 203 197 196 202 201 198 195 187 180 178 181 188 194 197 197 195 192 191 193 196 197 196 194 191 189 188 187 186 185 185 186 188 190 192 194 199 204 209 217 222 226 231 240 247 245 240 237 241 245 247 246 241 228 209 177
201 198 191 188 190 195 200 207 211 205 199 204 205 196 189 183 180 179 182 187 191 194 194 193 194 193 193 196 199 200 196 192 192 191 189 188 185 184 186 188 190 193 196 201 205 211 220 225 227 231 236 240 240 237 233 232 234 232 226 208 172 146 129
199 195 191 189 192 200 205 207 210 207 203 205 205 197 188 183 183 185 187 189 190 191 191 192 193 193 194 196 199 200 198 195 194 194 192 189 186 186 189 189 193 196 199 203 207 214 222 226 228 233 235 235 234 231 227 221 215 208 198 177 156 140 125
200 190 183 182 186 192 195 197 199 200 201 203 202 199 193 187 188 191 192 193 192 190 191 191 191 190 190 191 194 199 200 199 197 196 194 192 190 192 193 194 198 202 203 207 211 216 223 227 230 233 234 233 228 223 216 208 199 193 188 180 172 162 148
196 183 176 178 180 182 186 188 188 191 196 198 197 200 199 192 191 193 193 192 190 189 191 190 187 185 183 184 191 197 199 199 199 198 198 200 201 201 201 203 205 207 210 213 214 217 223 229 232 233 234 231 224 216 208 200 196 193 193 197 197 190 175
186 177 176 180 181 182 186 188 189 193 196 195 194 199 200 196 192 191 190 190 189 189 190 187 182 178 177 181 187 191 195 197 200 203 205 208 211 212 212 214 215 215 217 218 218 219 223 227 231 233 233 229 219 211 205 200 198 198 201 205 202 197 189
183 177 180 185 186 185 185 185 189 193 194 195 197 197 198 197 192 187 187 190 192 192 190 185 181 178 178 182 182 180 185 193 198 204 210 213 216 217 219 221 224 224 222 220 219 220 221 226 231 233 232 227 216 209 205 202 202 205 210 214 210 204 198
189 184 184 187 191 192 190 189 190 189 189 194 197 195 195 195 191 187 188 189 192 193 189 184 182 179 177 181 183 183 187 193 198 205 211 216 220 221 221 224 227 228 224 222 222 222 220 223 228 230 230 225 217 212 208 205 208 212 218 226 230 225 214
199 192 189 189 191 194 193 191 192 191 190 192 194 194 194 193 190 189 189 188 189 191 188 184 184 184 184 187 192 198 202 205 209 213 217 221 224 225 224 225 228 229 227 223 222 221 221 222 224 228 229 225 220 215 210 209 213 218 223 232 240 241 232
205 200 196 193 191 192 190 191 194 196 195 194 194 194 194 195 194 193 190 187 187 189 189 187 186 189 194 198 202 209 215 219 223 227 228 228 226 225 225 226 227 227 225 222 219 220 223 225 226 228 229 226 223 216 211 213 217 221 227 235 241 245 243
208 205 202 201 199 195 192 192 195 197 198 198 198 197 195 196 198 197 194 190 189 190 192 191 189 192 198 204 210 217 223 230 235 239 241 240 234 226 221 222 224 223 220 218 218 220 223 226 228 227 224 223 223 217 213 218 223 226 231 236 241 246 247
209 207 207 207 208 206 204 203 201 199 199 199 202 204 201 199 199 199 199 196 192 193 194 193 194 196 200 206 213 220 227 233 241 247 250 251 248 234 222 219 221 221 218 216 216 219 221 224 228 228 227 225 223 216 212 217 224 227 230 235 239 243 246
210 208 208 209 211 211 211 213 213 211 208 203 202 205 205 204 204 203 203 201 199 198 198 198 200 203 206 210 214 219 225 230 238 248 255 259 261 250 231 221 220 221 219 216 216 219 223 225 227 229 230 229 225 218 214 215 220 224 226 230 235 240 244
216 214 213 213 213 214 212 213 214 216 215 210 203 201 201 202 204 205 205 205 204 205 206 207 210 213 215 218 219 220 224 228 233 242 251 257 263 263 246 228 221 222 222 221 222 223 225 226 226 226 227 226 224 221 218 217 220 224 227 231 235 239 243
224 224 224 223 220 218 216 215 215 215 214 210 205 202 201 200 201 203 205 206 208 210 212 212 215 217 217 219 220 221 222 225 229 234 242 248 255 261 256 238 226 223 224 225 226 226 225 225 224 224 224 224 223 222 221 223 225 229 233 237 239 242 245
227 228 231 230 225 222 219 217 217 215 212 210 208 207 207 206 205 204 205 207 209 211 214 215 217 219 220 219 219 220 221 223 225 228 233 240 246 252 255 248 237 229 225 224 224 224 225 226 226 225 224 225 224 224 225 228 231 235 239 242 245 247 251
228 230 232 231 227 223 221 219 218 216 213 211 210 209 210 210 209 207 206 207 209 210 212 213 214 216 218 218 217 217 218 220 222 224 227 233 239 244 248 250 247 242 236 230 227 226 227 228 229 227 225 226 226 226 228 231 235 239 242 244 248 252 256
228 231 232 231 228 226 224 222 221 218 216 213 210 208 210 211 211 209 206 205 207 209 209 211 212 214 215 216 216 216 216 217 219 221 223 227 232 237 242 246 248 247 244 239 235 233 234 234 234 232 229 228 229 230 232 236 239 242 244 247 251 255 257
226 228 229 229 229 229 227 225 223 222 220 216 211 207 208 210 211 211 208 205 204 205 207 209 211 214 217 219 219 219 218 218 219 220 222 224 227 232 237 241 244 246 247 245 243 241 241 241 241 240 237 235 235 235 237 241 243 244 246 249 251 254 256
226 227 227 227 228 230 230 227 226 224 222 220 215 211 208 209 211 213 212 208 205 204 205 206 209 213 217 220 222 222 222 222 221 221 221 223 225 228 232 236 239 242 245 247 247 247 247 247 246 246 245 243 242 242 243 246 248 249 250 251 253 256 259
225 226 226 226 227 229 230 228 227 225 223 220 218 216 213 212 212 214 215 215 214 212 211 210 210 213 217 220 223 225 226 225 225 225 225 225 226 228 231 233 235 238 240 243 245 246 248 249 250 250 250 248 248 248 249 252 255 256 257 258 260 263 266
224 226 226 226 227 229 230 230 227 225 223 221 219 218 218 216 214 214 217 220 222 222 221 219 217 217 219 221 223 225 228 229 229 229 230 230 231 232 233 235 236 237 239 240 242 244 246 248 250 251 252 252 252 252 254 257 260 261 262 263 265 267 270
225 226 227 229 230 230 231 231 230 226 223 223 222 220 220 220 220 219 220 222 224 226 227 226 225 224 224 226 227 229 230 232 233 233 234 236 237 238 238 239 240 241 241 242 243 244 246 248 249 250 252 253 253 255 256 258 260 262 263 264 265 267 270
227 229 231 232 232 231 230 231 232 230 227 225 224 224 223 223 224 226 226 225 225 227 228 229 229 229 230 232 235 237 238 238 239 239 240 242 243 243 244 244 244 245 245 246 246 247 247 249 250 251 252 253 254 255 256 258 259 261 262 263 265 266 268
227 228 230 230 230 231 231 231 233 234 233 230 228 228 229 229 229 230 231 229 227 227 229 230 231 231 233 235 238 241 243 244 245 245 245 245 245 245 246 247 248 248 249 249 249 249 250 251 252 252 253 254 254 255 256 258 259 261 263 264 266 267 268
226 227 229 229 229 232 234 235 234 235 236 235 233 232 234 235 236 236 235 233 232 231 230 231 232 233 233 235 238 241 243 245 247 248 249 248 248 248 248 249 250 250 251 251 251 252 252 253 253 254 255 256 257 258 259 260 261 263 264 266 267 269 270
Height
5874 5876 5876 5877 5879 5881 5883 5886 5888 5889 5891 5892 5893 5895 5896 5898 5900 5902 5904 5906 5908 5910 5913 5915 5917 5919 5921 5922 5924 5926 5928 5930 5931 5933 5934 5935 5937 5938 5939 5941 5942 5943 5944 5945 5946 5947 5948 5948 5949 5950 5951 5951 5952 5952 5951 5951 5951 5951 5951 5951 5950 5950 5950
5872 5873 5874 5875 5877 5879 5882 5884 5886 5888 5890 5891 5892 5894 5896 5897 5899 5901 5903 5904 5906 5909 5911 5913 5915 5918 5919 5921 5923 5924 5926 5928 5930 5931 5933 5934 5936 5937 5938 5939 5941 5942 5943 5944 5945 5946 5947 5948 5949 5950 5950 5951 5951 5951 5951 5951 5951 5951 5950 5950 5950 5950 5950
5870 5871 5872 5874 5876 5878 5880 5883 5885 5886 5888 5889 5891 5892 5894 5896 5898 5900 5902 5903 5905 5907 5909 5912 5914 5916 5918 5919 5921 5923 5925 5926 5928 5930 5931 5933 5934 5936 5937 5938 5940 5941 5942 5944 5945 5945 5946 5947 5948 5949 5949 5950 5951 5951 5951 5950 5950 5950 5950 5950 5950 5950 5950
5868 5870 5871 5873 5875 5877 5879 5881 5883 5884 5886 5888 5889 5890 5892 5895 5897 5899 5901 5903 5904 5906 5909 5911 5913 5915 5917 5918 5920 5922 5923 5925 5927 5928 5930 5931 5933 5934 5936 5937 5939 5940 5941 5943 5944 5945 5945 5946 5947 5948 5948 5949 5949 5950 5950 5950 5949 5949 5949 5949 5949 5949 5949
5866 5868 5870 5871 5873 5875 5877 5879 5881 5883 5884 5886 5887 5888 5891 5893 5895 5897 5899 5902 5904 5906 5908 5910 5912 5914 5916 5918 5919 5921 5922 5924 5925 5927 5928 5930 5931 5933 5935 5936 5938 5939 5940 5941 5942 5943 5944 5945 5946 5947 5947 5947 5948 5948 5949 5949 5949 5948 5948 5948 5948 5948 5948
5863 5866 5868 5869 5871 5873 5875 5877 5879 5881 5883 5885 5886 5887 5890 5892 5894 5896 5898 5900 5902 5904 5906 5908 5910 5913 5915 5917 5918 5919 5921 5923 5924 5926 5927 5929 5930 5931 5933 5935 5936 5938 5939 5940 5941 5942 5943 5944 5944 5945 5946 5946 5946 5947 5947 5947 5948 5948 5947 5947 5947 5947 5947
5861 5864 5866 5867 5870 5872 5874 5875 5877 5879 5881 5883 5884 5886 5888 5890 5892 5894 5896 5898 5901 5903 5905 5907 5909 5911 5914 5916 5917 5918 5920 5921 5923 5925 5926 5927 5928 5930 5931 5933 5935 5937 5938 5939 5940 5941 5942 5942 5943 5944 5944 5945 5945 5945 5945 5946 5946 5946 5946 5947 5947 5946 5946
5858 5861 5864 5866 5868 5870 5872 5873 5875 5877 5879 5881 5883 5884 5886 5888 5890 5892 5894 5897 5899 5901 5903 5905 5907 5909 5912 5914 5916 5917 5918 5920 5921 5923 5924 5926 5927 5929 5930 5932 5934 5935 5937 5938 5939 5940 5940 5941 5941 5942 5943 5943 5943 5944 5944 5944 5945 5945 5945 5946 5946 5946 5945
5856 5859 5861 5863 5865 5868 5870 5871 5873 5875 5877 5879 5882 5883 5885 5887 5889 5891 5893 5895 5897 5900 5901 5903 5905 5907 5910 5912 5914 5916 5917 5918 5920 5922 5923 5925 5926 5928 5929 5931 5932 5934 5935 5936 5937 5938 5939 5939 5940 5940 5941 5942 5942 5942 5942 5943 5943 5943 5943 5944 5944 5945 5945
5852 5855 5858 5860 5863 5866 5868 5869 5871 5873 5876 5878 5880 5881 5883 5885 5887 5889 5891 5894 5896 5898 5899 5901 5903 5906 5908 5910 5912 5914 5916 5918 5919 5921 5922 5924 5925 5927 5928 5929 5931 5932 5933 5935 5936 5937 5937 5938 5939 5939 5939 5940 5940 5940 5941 5941 5941 5941 5942 5942 5943 5943 5943
5849 5852 5855 5857 5860 5863 5865 5867 5869 5872 5875 5877 5878 5879 5881 5884 5886 5888 5890 5892 5894 5896 5898 5900 5901 5904 5907 5909 5911 5913 5915 5916 5918 5920 5921 5923 5924 5925 5927 5928 5929 5931 5932 5933 5934 5935 5936 5937 5937 5937 5937 5938 5938 5938 5939 5939 5939 5939 5940 5940 5941 5941 5942
5846 5850 5852 5855 5858 5861 5863 5866 5868 5871 5873 5875 5876 5878 5880 5882 5884 5886 5888 5890 5893 5895 5897 5899 5900 5902 5905 5908 5910 5912 5913 5915 5917 5919 5920 5921 5922 5924 5925 5926 5928 5929 5930 5931 5932 5933 5934 5935 5935 5935 5936 5936 5936 5937 5937 5937 5937 5937 5938 5939 5939 5940 5940
5844 5847 5850 5853 5856 5859 5861 5864 5867 5869 5872 5873 5875 5877 5879 5881 5883 5885 5887 5889 5891 5893 5896 5898 5900 5902 5904 5906 5908 5910 5912 5914 5916 5917 5918 5919 5921 5922 5923 5924 5926 5927 5928 5929 5931 5932 5932 5933 5934 5934 5934 5934 5934 5935 5935 5935 5935 5936 5937 5938 5938 5938 5939
5842 5845 5848 5851 5854 5856 5859 5862 5864 5867 5869 5871 5873 5875 5877 5879 5881 5883 5885 5887 5889 5892 5894 5896 5899 5901 5903 5905 5907 5909 5911 5912 5914 5915 5917 5918 5919 5920 5921 5922 5924 5925 5926 5927 5929 5930 5931 5931 5932 5932 5933 5933 5933 5933 5934 5934 5934 5935 5936 5936 5937 5938 5938
5840 5843 5846 5849 5852 5855 5857 5860 5862 5865 5867 5869 5871 5874 5875 5877 5879 5881 5883 5886 5888 5890 5892 5895 5897 5899 5901 5903 5905 5907 5909 5911 5912 5914 5916 5917 5918 5918 5919 5920 5921 5923 5924 5925 5927 5928 5929 5930 5930 5931 5931 5931 5932 5932 5933 5933 5934 5934 5935 5935 5936 5936 5937
5839 5841 5844 5847 5850 5853 5856 5858 5860 5863 5866 5868 5870 5872 5874 5875 5877 5880 5882 5884 5887 5889 5891 5893 5895 5897 5899 5901 5903 5905 5907 5909 5911 5913 5914 5915 5916 5916 5917 5918 5919 5920 5922 5923 5924 5926 5927 5928 5928 5929 5929 5930 5930 5931 5932 5932 5933 5933 5934 5934 5935 5935 5935
5837 5840 5842 5845 5849 5852 5854 5857 5859 5861 5863 5866 5868 5870 5872 5874 5876 5878 5881 5883 5885 5887 5890 5892 5894 5895 5897 5899 5901 5903 5905 5908 5910 5911 5913 5914 5914 5915 5915 5916 5917 5918 5919 5921 5922 5923 5924 5925 5926 5927 5928 5928 5929 5930 5930 5931 5931 5932 5932 5933 5933 5934 5934
5836 5838 5841 5844 5847 5850 5853 5855 5857 5859 5862 5864 5866 5868 5871 5873 5875 5877 5880 5882 5884 5886 5888 5890 5892 5894 5896 5898 5899 5902 5904 5906 5907 5909 5910 5911 5912 5913 5913 5914 5915 5916 5917 5919 5920 5921 5922 5923 5924 5925 5926 5926 5927 5928 5928 5929 5930 5930 5931 5932 5932 5933 5933
5833 5836 5839 5843 5846 5848 5851 5854 5856 5858 5860 5862 5865 5867 5869 5871 5874 5876 5879 5881 5883 5885 5887 5889 5891 5893 5895 5896 5898 5900 5902 5903 5905 5906 5907 5908 5909 5910 5911 5912 5913 5914 5915 5916 5917 5918 5919 5920 5921 5922 5923 5924 5925 5926 5927 5927 5928 5929 5929 5930 5931 5931 5931
5830 5834 5837 5840 5843 5845 5848 5851 5853 5855 5857 5859 5862 5864 5867 5869 5872 5875 5877 5879 5881 5883 5885 5887 5889 5891 5893 5895 5897 5899 5900 5901 5902 5903 5904 5905 5906 5907 5908 5909 5910 5911 5912 5913 5914 5915 5917 5918 5919 5920 5921 5922 5923 5923 5924 5925 5926 5927 5927 5928 5928 5929 5929
5828 5832 5834 5837 5839 5842 5844 5847 5849 5851 5853 5856 5858 5861 5864 5867 5870 5872 5874 5877 5879 5882 5884 5886 5888 5890 5892 5894 5896 5897 5898 5899 5900 5901 5902 5902 5903 5904 5906 5907 5908 5908 5910 5911 5912 5913 5914 5915 5916 5917 5918 5919 5920 5921 5922 5923 5924 5924 5925 5925 5926 5926 5926
5826 5829 5832 5834 5836 5839 5842 5844 5846 5849 5851 5854 5857 5859 5862 5865 5867 5870 5872 5875 5878 5880 5883 5885 5887 5889 5890 5892 5894 5895 5896 5897 5898 5898 5899 5900 5901 5902 5903 5904 5905 5906 5907 5908 5909 5911 5911 5912 5914 5915 5916 5916 5917 5919 5920 5920 5921 5921 5922 5922 5923 5923 5924
5824 5826 5829 5831 5834 5837 5839 5842 5845 5847 5849 5852 5855 5858 5861 5864 5866 5868 5871 5873 5875 5878 5881 5883 5885 5887 5888 5890 5892 5893 5894 5894 5895 5896 5897 5897 5898 5899 5900 5901 5902 5903 5904 5905 5907 5908 5909 5910 5911 5912 5913 5914 5915 5916 5917 5917 5918 5918 5919 5920 5920 5921 5921
5821 5824 5826 5828 5831 5834 5836 5839 5842 5844 5847 5850 5853 5855 5858 5861 5864 5866 5869 5871 5873 5875 5878 5880 5882 5884 5886 5888 5889 5891 5892 5892 5893 5893 5894 5895 5896 5897 5898 5899 5899 5900 5901 5903 5904 5906 5906 5907 5908 5909 5910 5912 5913 5914 5914 5915 5915 5916 5917 5918 5918 5918 5918
5818 5821 5823 5826 5828 5831 5834 5836 5838 5841 5844 5847 5850 5853 5855 5857 5860 5863 5866 5868 5870 5873 5875 5877 5879 5881 5883 5885 5887 5888 5889 5890 5891 5892 5892 5893 5894 5894 5895 5896 5897 5898 5899 5900 5902 5903 5904 5904 5905 5907 5908 5909 5910 5911 5912 5913 5913 5914 5915 5915 5915 5915 5916
5816 5818 5821 5824 5826 5829 5831 5834 5836 5839 5841 5844 5847 5849 5852 5854 5857 5859 5862 5864 5867 5869 5872 5874 5876 5878 5880 5882 5884 5886 5887 5888 5889 5890 5891 5891 5891 5892 5892 5893 5894 5896 5897 5898 5899 5900 5901 5902 5903 5905 5906 5906 5907 5908 5909 5910 5910 5911 5912 5912 5912 5913 5913
5814 5817 5819 5822 5825 5827 5829 5832 5834 5836 5838 5841 5843 5846 5849 5851 5853 5856 5858 5860 5863 5865 5868 5870 5872 5874 5876 5878 5880 5882 5884 5886 5887 5888 5889 5889 5890 5890 5890 5891 5892 5893 5894 5895 5896 5898 5899 5900 5901 5902 5903 5904 5905 5906 5907 5907 5908 5908 5908 5909 5909 5910 5910
5811 5814 5817 5820 5823 5825 5827 5829 5831 5833 5835 5837 5840 5842 5845 5848 5850 5852 5854 5857 5859 5861 5864 5866 5868 5870 5872 5874 5876 5878 5880 5882 5884 5885 5886 5887 5888 5888 5889 5889 5890 5891 5892 5893 5894 5895 5897 5898 5899 5900 5901 5902 5903 5903 5904 5904 5905 5905 5906 5906 5907 5907 5907
5809 5812 5815 5818 5820 5822 5824 5826 5828 5830 5832 5834 5836 5839 5841 5843 5846 5848 5851 5853 5855 5858 5860 5862 5864 5865 5867 5869 5871 5873 5875 5877 5879 5881 5882 5884 5885 5886 5887 5887 5888 5889 5890 5891 5892 5893 5894 5895 5896 5898 5899 5900 5900 5901 5901 5901 5902 5902 5903 5904 5904 5904 5904
5806 5809 5811 5814 5816 5818 5820 5822 5825 5827 5829 5831 5833 5835 5837 5840 5842 5844 5847 5849 5851 5853 5855 5858 5859 5861 5863 5865 5866 5868 5870 5872 5874 5876 5878 5879 5881 5882 5883 5884 5885 5886 5887 5888 5889 5890 5892 5893 5894 5895 5896 5897 5898 5898 5898 5898 5898 5899 5900 5901 5901 5901 5901
5802 5805 5808 5810 5812 5815 5817 5819 5821 5824 5826 5828 5830 5832 5834 5837 5839 5841 5843 5845 5847 5849 5851 5853 5855 5857 5859 5860 5862 5864 5865 5867 5869 5871 5873 5875 5876 5878 5879 5881 5882 5883 5884 5885 5886 5887 5888 5889 5890 5891 5893 5894 5894 5895 5895 5895 5895 5895 5897 5898 5898 5897 5897
5799 5802 5804 5806 5808 5811 5813 5816 5818 5820 5822 5824 5827 5829 5831 5834 5836 5838 5839 5841 5844 5846 5848 5850 5851 5853 5855 5856 5858 5860 5861 5863 5865 5867 5868 5870 5872 5873 5875 5876 5878 5879 5880 5881 5882 5884 5885 5886 5887 5888 5889 5890 5891 5891 5891 5891 5891 5892 5893 5894 5894 5893 5893
5794 5797 5800 5802 5804 5806 5809 5812 5815 5817 5819 5821 5824 5826 5828 5831 5833 5835 5837 5839 5841 5843 5845 5847 5848 5850 5852 5853 5855 5856 5858 5860 5861 5863 5865 5866 5868 5869 5870 5872 5873 5874 5876 5877 5878 5880 5881 5882 5883 5884 5885 5887 5887 5887 5887 5887 5887 5889 5890 5890 5890 5889 5888
5789 5792 5795 5798 5800 5802 5805 5808 5811 5813 5816 5818 5821 5823 5825 5828 5830 5832 5835 5837 5838 5840 5842 5844 5846 5847 5849 5851 5852 5854 5855 5857 5858 5860 5861 5862 5863 5865 5866 5867 5869 5870 5872 5873 5874 5875 5877 5878 5879 5880 5881 5882 5883 5883 5883 5883 5884 5885 5885 5886 5885 5885 5884
5784 5788 5791 5794 5797 5799 5801 5803 5807 5810 5812 5814 5817 5820 5822 5824 5827 5830 5832 5834 5836 5837 5839 5841 5843 5845 5846 5848 5850 5851 5853 5854 5855 5857 5858 5859 5860 5861 5863 5864 5865 5866 5867 5869 5870 5871 5873 5874 5875 5876 5877 5878 5878 5879 5879 5879 5879 5880 5880 5880 5880 5880 5879
5780 5783 5786 5790 5792 5795 5798 5800 5802 5805 5808 5810 5813 5816 5818 5821 5823 5826 5828 5830 5832 5834 5835 5837 5839 5841 5843 5845 5846 5848 5849 5851 5852 5853 5854 5856 5857 5858 5859 5860 5862 5863 5864 5865 5866 5867 5868 5869 5870 5871 5872 5873 5873 5874 5874 5874 5874 5874 5874 5875 5875 5875 5874
5776 5779 5782 5785 5788 5791 5794 5796 5798 5800 5803 5806 5809 5811 5814 5817 5819 5821 5823 5825 5827 5829 5831 5833 5835 5837 5839 5841 5842 5844 5845 5847 5848 5849 5851 5853 5854 5855 5855 5856 5858 5859 5860 5861 5862 5863 5864 5865 5866 5866 5867 5867 5868 5868 5868 5868 5869 5869 5869 5869 5869 5869 5868
5772 5774 5777 5781 5784 5787 5790 5792 5794 5796 5798 5801 5804 5807 5810 5812 5814 5816 5819 5821 5823 5825 5827 5829 5831 5833 5835 5837 5838 5840 5841 5843 5844 5845 5847 5848 5850 5850 5851 5852 5853 5854 5855 5856 5857 5858 5859 5860 5861 5861 5861 5862 5862 5862 5863 5863 5863 5863 5863 5863 5862 5862 5862